Home > Weather > Nottingham > Past weeks

Flag for United Kingdom Weather for the Past 2 Weeks in Nottingham, England, United Kingdom

Now
36 °F

Clear.


Feels Like: 27 °F
Forecast: 35 / 51 °F
Wind: 13 mph from West

Location: East Midlands

Current Time: Apr 29, 2016 at 2:56:48 AM

Latest Report: Apr 29, 2016 at 2:20 AM


Visibility: 10 mi

Pressure: 29.71 "Hg

Humidity: 87%

Dew Point: 32 °F

Location of NottinghamLocation

Historic Weather in Nottingham — Graph

°F

Nottingham Temperature Yesterday

Maximum temperature yesterday: 48 °F (at 11:50 AM)
Minimum temperature yesterday: 30 °F (at 3:50 AM)
Average temperature yesterday: 39 °F

High & Low Weather Summary for the Past Weeks

 TemperatureHumidityPressure
High59 °F (Apr 20, 4:20 PM)100% (Apr 14, 6:20 AM)30.48 "Hg (Apr 14, 6:20 AM)
Low30 °F (Apr 17, 3:20 AM)36% (Apr 20, 1:50 PM)29.47 "Hg (Apr 15, 7:50 PM)
Average44 °F75%30.00 "Hg
* Reported Apr 14 1:20 AM — Apr 29 1:20 AM, Nottingham, Weather by CustomWeather, © 2016

Note: Actual official high and low records may vary slightly from our data, if they occured in-between our weather recording intervals... More about our weather records

Advertising

Nottingham Weather History for the Previous 24 Hours

Scroll right to see more
 ConditionsComfort  
Time TempWeatherWind HumidityBarometerVisibility
1:20 AM
Fri, Apr 29
39 °FPartly cloudy.12 mph87%29.71 "HgN/A
12:50 AM39 °FSprinkles. Partly cloudy.17 mph81%29.71 "HgN/A
12:20 AM37 °FPassing clouds.13 mph93%29.68 "HgN/A
11:50 PM
Thu, Apr 28
39 °FClear.13 mph87%29.68 "Hg10 mi
10:50 PM39 °FPassing clouds.9 mph87%29.68 "HgN/A
10:20 PM39 °FPartly cloudy.12 mph93%29.68 "HgN/A
9:50 PM41 °FPassing clouds.14 mph87%29.68 "HgN/A
9:20 PM39 °FLight rain. Partly sunny.14 mph93%29.71 "HgN/A
8:50 PM41 °FLight rain. Scattered clouds.17 mph87%29.71 "HgN/A
8:20 PM41 °FBroken clouds.8 mph87%29.71 "HgN/A
7:50 PM41 °FScattered showers. Broken clouds.8 mph87%29.71 "HgN/A
7:20 PM43 °FLight rain. Partly sunny.9 mph93%29.71 "HgN/A
6:50 PM43 °FLight rain. Partly sunny.15 mph87%29.74 "HgN/A
6:20 PM41 °FHeavy rain. Partly sunny.23 mph93%29.74 "Hg1 mi
5:50 PM45 °FRain. Partly sunny.24 mph81%29.71 "Hg5 mi
5:20 PM46 °FScattered showers. Scattered clouds.22 mph71%29.71 "HgN/A
4:50 PM48 °FPartly sunny.22 mph66%29.74 "HgN/A
4:20 PM46 °FPartly sunny.17 mph71%29.74 "HgN/A
3:50 PM45 °FLight rain. Broken clouds.15 mph81%29.77 "HgN/A
3:20 PM45 °FSprinkles. Broken clouds.18 mph81%29.80 "HgN/A
2:50 PM45 °FSprinkles. Broken clouds.17 mph71%29.80 "HgN/A
2:20 PM43 °FSprinkles. Partly sunny.17 mph81%29.83 "HgN/A
1:20 PM46 °FSprinkles. Partly sunny.17 mph57%29.83 "HgN/A
12:20 PM48 °FSunny.17 mph46%29.86 "Hg10 mi
11:50 AM48 °FPartly sunny.17 mph43%29.86 "HgN/A
10:50 AM45 °FScattered clouds.12 mph57%29.89 "HgN/A
10:20 AM45 °FScattered clouds.10 mph66%29.89 "HgN/A
9:20 AM41 °FSunny.13 mph76%29.92 "Hg10 mi
8:50 AM39 °FSunny.9 mph75%29.92 "Hg10 mi
8:20 AM37 °FSunny.12 mph81%29.92 "Hg10 mi
6:50 AM34 °FSunny.9 mph87%29.92 "Hg10 mi
6:20 AM32 °FClear.10 mph93%29.92 "Hg10 mi
5:50 AM30 °FClear.13 mph93%29.92 "Hg10 mi
4:50 AM30 °FClear.9 mph93%29.92 "Hg10 mi
4:20 AM32 °FClear.8 mph87%29.92 "Hg10 mi
3:50 AM30 °FClear.10 mph93%29.92 "Hg10 mi
3:20 AM32 °FClear.9 mph87%29.92 "Hg10 mi
2:50 AM32 °FClear.9 mph93%29.92 "Hg10 mi
2:20 AM32 °FClear.9 mph93%29.92 "Hg10 mi
Weather by CustomWeather, © 2016

See weather overviewHow to use our weather pages